Regional Weather Roundup
Issued by NWS Sioux Falls, SD

Home | Current Version | Previous Version | Graphics & Text | Print | Product List | Glossary On
Versions: 1 2 3 4 5 6 7 8 9 10 11 12 13 14 15 16 17 18 19 20 21 22 23 24 25 26 27 28 29 30 31 32 33 34 35 36 37 38 39 40 41 42 43 44 45 46 47 48 49 50
000
ASUS43 KFSD 272110
RWRFSD

WEATHER ROUNDUP FOR SE SOUTH DAKOTA/SW MINNESOTA/NW IOWA
NATIONAL WEATHER SERVICE SIOUX FALLS SD
400 PM CDT THU AUG 27 2015

NOTE: "FAIR" INDICATES FEW OR NO CLOUDS BELOW 12,000 FEET WITH NO
SIGNIFICANT WEATHER AND OR OBSTRUCTIONS TO VISIBILITY.


SDZ038>040-050-052>070-272200-
SOUTHEAST SOUTH DAKOTA

CITY           SKY/WX    TMP DP  RH WIND       PRES   REMARKS
BROOKINGS      FAIR      77  68  73 SE13      30.01F
CHAMBERLAIN    FAIR      80  68  67 SE13G18   29.90F
HURON          FAIR      80  69  69 E9        29.93S
MADISON        FAIR      77  68  73 E8        29.99F
MITCHELL       FAIR      81  69  67 E12       29.92F
SIOUX FALLS    CLOUDY    76  67  73 E10       29.98R
WINNER         FAIR      82  67  60 NE15      29.89F
YANKTON        FAIR      81  68  65 SE13      29.90S
$$

MNZ071-072-080-081-089-090-097-098-272200-
SOUTHWEST MINNESOTA

CITY           SKY/WX    TMP DP  RH WIND       PRES   REMARKS
FAIRMONT       FAIR      66  57  72 CALM      30.08R
JACKSON        CLOUDY    68  63  83 E9        30.06F
LUVERNE        CLOUDY    77  64  65 E7        30.01S
MARSHALL       CLOUDY    72  61  68 S6        30.00S THUNDER
MONTEVIDEO     FAIR      75  66  73 SW6       29.99F
PIPESTONE      FAIR      75  64  69 SE8       30.01F
REDWOOD FALLS  PTSUNNY   67  63  87 S13G25    29.96F
TRACY          FAIR      73  65  77 S10       29.98F
WINDOM         FAIR      70  63  78 CALM      30.04F
WORTHINGTON    FAIR      73  63  68 E8        30.03F
$$

IAZ001>003-012>014-020>022-031-032-NEZ013-014-SDZ071-272200-
NORTHWEST IOWA

CITY           SKY/WX    TMP DP  RH WIND       PRES   REMARKS
CHEROKEE       FAIR      77  67  71 SE7       29.99S
DENISON        FAIR      79  68  69 S14       29.95F
ESTHERVILLE    CLOUDY    67  60  78 SE8       30.06R
LE MARS        FAIR      81  68  65 S15G23    29.95F
ORANGE CITY    FAIR      79  66  65 SE5       29.98S
SHELDON        FAIR      77  66  69 SE10      29.99S
SIOUX CITY     FAIR      80  66  62 SE17      29.91F
SPENCER        FAIR      75  63  66 SE8       30.03S
STORM LAKE     FAIR      75  66  73 SE8       30.01R
$$

ABBREVIATIONS USED IN REMARKS
   TC - TEMPERATURE IN CELSIUS
  WCI - WIND CHILL INDEX
   HX - HEAT INDEX
  VSB - VISIBILITY



USA.gov is the U.S. government's official web portal to all federal, state and local government web resources and services.